Change the Weather History Date:

Saturday, February 23, 2013

  Actual Average Record
Temperature  
Mean Temperature 60 °F -  
Max Temperature 62 °F 64 °F 76 °F (1949)
Min Temperature 57 °F 46 °F 28 °F (1964)
Degree Days  
Heating Degree Days 6    
Growing Degree Days 10 (Base 50)    
Moisture  
Dew Point 56 °F    
Average Humidity 95    
Maximum Humidity 100    
Minimum Humidity 82    
Precipitation  
Precipitation 0.01 in - - ()
Sea Level Pressure  
Sea Level Pressure 29.88 in    
Wind  
Wind Speed 9 mph (NNE)    
Max Wind Speed 16 mph    
Max Gust Speed 18 mph    
Visibility 7 miles    
Events Rain , Thunderstorm    
Averages and records for this station are not official NWS values.
T = Trace of Precipitation, MM = Missing Value Source: NWS Daily Summary

Daily Weather History Graph

Daily Weather History Graph

Search for Another Location

Airport or City:

Trip Planner

Search our weather history database for the weather conditions in past years. The results will help you decide how hot, cold, wet, or windy it might be!

Date:

Astronomy

Feb. 23, 2013 Rise Set
Actual Time 6:28 AM CST 5:50 PM CST
Civil Twilight 6:03 AM CST 6:14 PM CST
Nautical Twilight 5:35 AM CST 6:42 PM CST
Astronomical Twilight 5:07 AM CST 7:10 PM CST
Moon 4:04 PM CST (2/23) 4:44 AM CST (2/23)
Length of Visible Light 12h 10m
Length of Day
11h 22m
Waxing Gibbous, 95% of the Moon is Illuminated
Feb 23
Waxing Gibbous
Feb 25
Full
Mar 4
Last Quarter
Mar 11
New
Mar 19
First Quarter

Hourly Weather History & Observations

Time (CST) Temp. Dew Point Humidity Pressure Visibility Wind Dir Wind Speed Gust Speed Precip Events Conditions
12:23 AM 57.2 °F 57.2 °F 100% 29.89 in 7.0 mi North 10.4 mph - N/A   Overcast
12:43 AM 57.2 °F 57.2 °F 100% 29.88 in 5.0 mi NE 8.1 mph - N/A   Overcast
12:53 AM 57.2 °F 57.2 °F 100% 29.87 in 5.0 mi ENE 9.2 mph - N/A   Overcast
12:58 AM 57.7 °F 56.8 °F 97% 29.87 in 5.0 mi NE 5.8 mph - N/A   Overcast
1:08 AM 57.2 °F 57.2 °F 100% 29.87 in 7.0 mi North 6.9 mph - N/A   Overcast
1:18 AM 57.2 °F 57.2 °F 100% 29.88 in 6.0 mi NNW 10.4 mph - N/A   Overcast
1:28 AM 57.2 °F 57.2 °F 100% 29.89 in 4.0 mi NNW 9.2 mph - N/A   Overcast
1:35 AM 57.2 °F 57.2 °F 100% 29.88 in 4.0 mi NNW 11.5 mph - N/A   Light Drizzle
1:40 AM 57.2 °F 57.2 °F 100% 29.88 in 4.0 mi North 9.2 mph - N/A Rain Light Rain
1:55 AM 57.2 °F 57.2 °F 100% 29.87 in 5.0 mi North 9.2 mph - N/A   Light Drizzle
1:58 AM 57.4 °F 56.7 °F 97% 29.88 in 5.0 mi North 10.4 mph - 0.01 in   Light Drizzle
1:59 AM 57.2 °F 57.2 °F 100% 29.87 in 6.0 mi North 9.2 mph - N/A   Overcast
2:04 AM 57.2 °F 57.2 °F 100% 29.86 in 8.0 mi NNE 8.1 mph - N/A   Overcast
2:14 AM 57.2 °F 55.4 °F 94% 29.87 in 9.0 mi North 10.4 mph - N/A   Overcast
2:44 AM 57.2 °F 55.4 °F 94% 29.87 in 10.0 mi NNE 6.9 mph - N/A   Overcast
2:52 AM 57.2 °F 55.4 °F 94% 29.87 in 10.0 mi North 11.5 mph - N/A Rain , Thunderstorm Light Rain
2:55 AM 57.2 °F 55.4 °F 94% 29.86 in 10.0 mi NNE 9.2 mph - N/A Rain , Thunderstorm Light Thunderstorms and Rain
2:58 AM 57.2 °F 55.4 °F 94% 29.87 in 10.0 mi NE 8.1 mph - 0.00 in Rain , Thunderstorm Light Thunderstorms and Rain
3:03 AM 57.2 °F 55.4 °F 94% 29.87 in 9.0 mi Variable 4.6 mph - N/A Rain , Thunderstorm Light Thunderstorms and Rain
3:04 AM 57.2 °F 55.4 °F 94% 29.89 in 9.0 mi NW 5.8 mph - N/A Thunderstorm Thunderstorm
3:07 AM 57.2 °F 55.4 °F 94% 29.90 in 7.0 mi NNW 8.1 mph - N/A Rain , Thunderstorm Light Thunderstorms and Rain
3:12 AM 57.2 °F 55.4 °F 94% 29.88 in 1.2 mi Variable 4.6 mph - N/A Rain , Thunderstorm Heavy Thunderstorms and Rain
3:17 AM 57.2 °F 55.4 °F 94% 29.87 in 1.2 mi ENE 6.9 mph - N/A Rain , Thunderstorm Thunderstorms and Rain
3:22 AM 57.2 °F 55.4 °F 94% 29.86 in 3.0 mi ENE 4.6 mph - N/A Rain , Thunderstorm Heavy Thunderstorms and Rain
3:27 AM 57.2 °F 55.4 °F 94% 29.87 in 4.0 mi NNE 9.2 mph - N/A Rain , Thunderstorm Thunderstorms and Rain
3:32 AM 57.2 °F 57.2 °F 100% 29.89 in 4.0 mi NNW 11.5 mph - N/A Rain , Thunderstorm Light Thunderstorms and Rain
3:37 AM 57.2 °F 57.2 °F 100% 29.88 in 2.0 mi North 15.0 mph - N/A Rain , Thunderstorm Heavy Thunderstorms and Rain
3:40 AM 57.2 °F 57.2 °F 100% 29.88 in 1.0 mi North 11.5 mph - N/A Thunderstorm Overcast
3:49 AM 57.2 °F 57.2 °F 100% - 1.5 mi North 10.4 mph - N/A   Overcast
3:54 AM 57.2 °F 57.2 °F 100% - 1.8 mi NNE 5.8 mph - N/A   Overcast
3:58 AM 57.2 °F 57.2 °F 100% - 2.0 mi Variable 4.6 mph - N/A   Overcast
4:03 AM - - N/A% - 2.0 mi NNE 9.2 mph - N/A   Overcast
4:08 AM - - N/A% - 1.5 mi NNE 6.9 mph - N/A   Overcast
4:13 AM - - N/A% - 1.8 mi NNE 10.4 mph - N/A   Overcast
4:18 AM - - N/A% - 3.0 mi NNE 10.4 mph - N/A   Overcast
4:23 AM - - N/A% - 7.0 mi North 10.4 mph - N/A   Overcast
4:28 AM - - N/A% - 10.0 mi NNE 11.5 mph - N/A   Overcast
4:33 AM - - N/A% - 9.0 mi NNW 9.2 mph - N/A   Overcast
4:43 AM - - N/A% - 2.5 mi NNE 12.7 mph - N/A   Overcast
4:48 AM - - N/A% - 2.0 mi North 13.8 mph 18.4 mph N/A   Overcast
4:53 AM - - N/A% - 3.0 mi North 12.7 mph 18.4 mph N/A   Overcast
4:58 AM - - N/A% - 6.0 mi North 16.1 mph 18.4 mph N/A   Haze
5:03 AM - - N/A% - 2.5 mi North 15.0 mph - N/A   Overcast
5:13 AM - - N/A% - 6.0 mi NNE 12.7 mph - N/A   Haze
5:23 AM - - N/A% - 4.0 mi NNE 8.1 mph - N/A   Haze
5:28 AM - - N/A% - 4.0 mi NNE 9.2 mph - N/A   Haze
5:43 AM - - N/A% - 5.0 mi NNE 9.2 mph - N/A   Haze
5:58 AM - - N/A% - 9.0 mi NNE 8.1 mph - N/A   Overcast
6:03 AM - - N/A% - 10.0 mi NNE 9.2 mph - N/A   Overcast
6:38 AM - - N/A% - 10.0 mi NE 10.4 mph - N/A   Overcast
6:58 AM - - N/A% - 10.0 mi NE 11.5 mph - N/A   Overcast
7:13 AM - - N/A% - 10.0 mi NE 9.2 mph - N/A   Overcast
7:58 AM - - N/A% - 10.0 mi NNE 8.1 mph - N/A   Overcast
8:08 AM - - N/A% - 10.0 mi NNE 9.2 mph - N/A   Overcast
8:58 AM 59.0 °F 53.6 °F 82% 29.94 in 10.0 mi NNE 10.4 mph - N/A   Overcast
9:58 AM 59.0 °F 53.6 °F 82% 29.91 in 10.0 mi NNE 8.1 mph - N/A   Mostly Cloudy
10:58 AM 60.8 °F 55.4 °F 82% 29.94 in 10.0 mi North 9.2 mph - N/A   Overcast
11:23 AM 60.8 °F 55.4 °F 82% 29.93 in 10.0 mi NNE 8.1 mph - N/A   Overcast
11:43 AM 60.8 °F 55.4 °F 82% 29.92 in 10.0 mi NNE 8.1 mph - N/A   Mostly Cloudy
11:58 AM 59.0 °F 53.6 °F 82% 29.92 in 10.0 mi North 11.5 mph - N/A   Mostly Cloudy
12:28 PM 59.0 °F 55.4 °F 88% 29.92 in 6.0 mi North 9.2 mph - N/A Rain , Thunderstorm Light Rain Showers
12:58 PM 59.0 °F 59.0 °F 100% 29.93 in 5.0 mi NNW 4.6 mph - N/A Rain , Thunderstorm Light Rain Showers
1:27 PM - - N/A% - 7.0 mi ESE 4.6 mph - N/A   Overcast
1:58 PM 62.6 °F 60.8 °F 94% 29.86 in 6.0 mi ESE 10.4 mph - N/A Rain Light Rain Showers
2:42 PM 57.2 °F 57.2 °F 100% 29.80 in 10.0 mi North 5.8 mph - N/A   Mostly Cloudy
2:58 PM 57.2 °F 57.2 °F 100% 29.83 in 10.0 mi NNW 11.5 mph - N/A   Overcast
3:58 PM 60.8 °F 57.2 °F 88% 29.84 in 10.0 mi North 8.1 mph - N/A   Overcast
4:58 PM 60.8 °F 55.4 °F 82% 29.88 in 10.0 mi NNW 4.6 mph - N/A   Overcast
5:48 PM - - N/A% - 10.0 mi NNW 6.9 mph - N/A   Overcast
5:58 PM - - N/A% - 10.0 mi NNW 6.9 mph - N/A   Overcast
6:58 PM - - N/A% - 10.0 mi North 9.2 mph - N/A   Overcast
7:43 PM - - N/A% - 10.0 mi North 8.1 mph - N/A   Overcast
7:58 PM - - N/A% - 10.0 mi NNE 5.8 mph - N/A   Overcast
8:43 PM - - N/A% - 10.0 mi NNE 5.8 mph - N/A   Overcast
8:58 PM - - N/A% - 10.0 mi NNE 5.8 mph - N/A   Overcast
9:58 PM - - N/A% - 10.0 mi NNE 9.2 mph - N/A   Overcast
10:58 PM - - N/A% - 10.0 mi NNE 6.9 mph - N/A   Overcast
11:58 PM - - N/A% - 10.0 mi NE 9.2 mph - N/A   Overcast